JG6YPS-13 Weather Reports


Display with metric or nautical units.
time (UTC)temp
F
wind
direction
speed
MPH
gust
MPH
rain 1hr
in
rain 24hr
in
rain mn
in
humidity
%
barometer
mb
20260508060455 78 225 2.0 5.0 0.00 0.00 0.00 42 1011.3
20260508055455 78 90 1.0 8.0 0.00 0.00 0.00 41 1011.1
20260508054455 80 270 1.0 6.0 0.00 0.00 0.00 43 1011.2
20260508053455 82 180 2.0 8.0 0.00 0.00 0.00 40 1011.1
20260508052455 84 225 2.0 10.0 0.00 0.00 0.00 43 1011.1
20260508051454 85 270 1.0 4.0 0.00 0.00 0.00 40 1011.3
20260508050454 87 225 3.0 7.0 0.00 0.00 0.00 40 1011.3
20260508045454 87 270 2.0 6.0 0.00 0.00 0.00 42 1011.5
20260508044453 86 270 2.0 10.0 0.00 0.00 0.00 43 1011.6
20260508043453 88 270 3.0 9.0 0.00 0.00 0.00 40 1011.6
20260508042453 86 293 2.0 3.0 0.00 0.00 0.00 42 1011.6
20260508041452 85 270 2.0 12.0 0.00 0.00 0.00 45 1011.7
20260508040452 87 135 1.0 8.0 0.00 0.00 0.00 44 1011.8
20260508035451 84 315 0.0 8.0 0.00 0.00 0.00 46 1011.9
20260508034451 86 90 1.0 3.0 0.00 0.00 0.00 45 1011.9
20260508033451 83 135 1.0 6.0 0.00 0.00 0.00 52 1012.0
20260508032451 79 270 2.0 5.0 0.00 0.00 0.00 53 1012.0
20260508031451 79 270 0.0 5.0 0.00 0.00 0.00 57 1012.0
20260508030450 78 0 2.0 5.0 0.00 0.00 0.00 56 1012.0
20260508025450 78 180 2.0 7.0 0.00 0.00 0.00 56 1011.9
20260508024450 79 270 2.0 6.0 0.00 0.00 0.00 54 1011.9
20260508023450 79 225 2.0 5.0 0.00 0.00 0.00 54 1011.9
20260508022450 79 180 1.0 5.0 0.00 0.00 0.00 55 1011.8
20260508021450 76 270 2.0 7.0 0.00 0.00 0.00 59 1011.8
20260508020450 80 270 4.0 11.0 0.00 0.00 0.00 56 1012.1
20260508015450 80 270 2.0 5.0 0.00 0.00 0.00 60 1011.9
20260508014450 79 270 4.0 10.0 0.00 0.00 0.00 60 1011.8
20260508013450 75 293 4.0 11.0 0.00 0.00 0.00 66 1011.8
20260508012450 79 225 2.0 6.0 0.00 0.00 0.00 64 1011.9
20260508011451 78 270 1.0 8.0 0.00 0.00 0.00 66 1011.8
20260508010451 76 270 2.0 7.0 0.00 0.00 0.00 66 1011.9
20260508005451 78 270 2.0 5.0 0.00 0.00 0.00 65 1011.8
20260508004451 80 270 1.0 3.0 0.00 0.00 0.00 63 1011.8
20260508003450 79 270 2.0 5.0 0.00 0.00 0.00 64 1011.9
20260508002450 80 270 2.0 3.0 0.00 0.00 0.00 65 1011.8
20260508001450 78 248 1.0 5.0 0.00 0.00 0.00 67 1011.8
20260508000450 75 45 0.0 5.0 0.00 0.00 0.00 71 1012.0
20260507235451 77 270 1.0 5.0 0.00 0.00 0.00 68 1012.0
20260507234451 76 270 0.0 4.0 0.00 0.00 0.00 70 1011.9
20260507233451 76 45 1.0 6.0 0.00 0.00 0.00 71 1011.9
20260507232451 75 225 2.0 4.0 0.00 0.00 0.00 73 1011.8
20260507231451 74 45 0.0 2.0 0.00 0.00 0.00 75 1011.9
20260507230451 72 225 0.0 4.0 0.00 0.00 0.00 78 1012.0
20260507225451 71 135 0.0 2.0 0.00 0.00 0.00 79 1012.3
20260507224451 71 315 0.0 2.0 0.00 0.00 0.00 79 1012.4
20260507223452 72 180 1.0 2.0 0.00 0.00 0.00 76 1012.2
20260507222452 71 180 0.0 2.0 0.00 0.00 0.00 78 1012.3
20260507221452 69 90 0.0 2.0 0.00 0.00 0.00 82 1012.1
20260507220452 67 135 0.0 2.0 0.00 0.00 0.00 84 1012.2
20260507215453 66 315 0.0 1.0 0.00 0.00 0.00 87 1012.3
20260507214453 67 0 0.0 2.0 0.00 0.00 0.00 85 1012.2
20260507213453 65 135 0.0 1.0 0.00 0.00 0.00 89 1012.0
20260507212454 64 225 0.0 0.0 0.00 0.00 0.00 90 1012.1
20260507211455 64 225 0.0 0.0 0.00 0.00 0.00 90 1012.1
20260507210455 63 225 0.0 0.0 0.00 0.00 0.00 91 1012.0
20260507205456 64 225 0.0 0.0 0.00 0.00 0.00 90 1011.8
20260507204456 63 225 0.0 0.0 0.00 0.00 0.00 91 1011.7
20260507203457 63 315 0.0 0.0 0.00 0.00 0.00 90 1011.6
20260507202457 63 315 0.0 0.0 0.00 0.00 0.00 90 1011.4
20260507201458 63 90 0.0 0.0 0.00 0.00 0.00 90 1011.4
20260507200458 63 315 0.0 0.0 0.00 0.00 0.00 90 1011.5
20260507195459 63 180 0.0 0.0 0.00 0.00 0.00 90 1011.7
20260507194459 63 0 0.0 0.0 0.00 0.00 0.00 90 1011.9
20260507193500 63 315 0.0 1.0 0.00 0.00 0.00 90 1011.8
20260507192500 63 180 0.0 1.0 0.00 0.00 0.00 90 1011.9
20260507191501 62 315 0.0 0.0 0.00 0.00 0.00 90 1012.1
20260507190501 62 203 0.0 1.0 0.00 0.00 0.00 90 1011.9
20260507185502 62 225 0.0 0.0 0.00 0.00 0.00 90 1011.8
20260507184502 63 0 0.0 0.0 0.00 0.00 0.00 90 1011.7
20260507183503 63 0 0.0 1.0 0.00 0.00 0.00 89 1011.7
20260507182504 63 135 0.0 1.0 0.00 0.00 0.00 89 1011.6
20260507181504 63 45 0.0 0.0 0.00 0.00 0.00 89 1011.8
20260507180504 63 0 0.0 0.0 0.00 0.00 0.00 88 1011.8
20260507175505 63 0 0.0 1.0 0.00 0.00 0.00 88 1011.9
20260507174506 64 225 0.0 1.0 0.00 0.00 0.00 88 1012.2
20260507173506 64 180 0.0 0.0 0.00 0.00 0.00 87 1012.1
20260507172507 64 180 0.0 1.0 0.00 0.00 0.00 88 1012.0
20260507171507 64 315 0.0 0.0 0.00 0.00 0.00 87 1012.0
20260507170508 64 180 0.0 1.0 0.00 0.00 0.00 88 1012.0
20260507165508 64 45 0.0 0.0 0.00 0.00 0.00 88 1012.0
20260507164509 64 90 0.0 2.0 0.00 0.00 0.00 87 1012.3
20260507163510 64 135 0.0 2.0 0.00 0.00 0.00 88 1012.7
20260507162510 64 135 1.0 2.0 0.00 0.00 0.00 87 1012.6
20260507161511 64 158 0.0 1.0 0.00 0.00 0.00 87 1012.8
20260507160511 64 180 0.0 1.0 0.00 0.00 0.00 87 1012.8
20260507155512 64 270 0.0 0.0 0.00 0.00 0.00 87 1012.9
20260507154512 64 135 0.0 0.0 0.00 0.00 0.00 87 1013.0
20260507153513 65 135 0.0 0.0 0.00 0.00 0.00 86 1013.1
20260507152513 65 135 0.0 1.0 0.00 0.00 0.00 87 1013.1
20260507151514 65 180 0.0 1.0 0.00 0.00 0.00 86 1013.1
20260507150514 65 135 0.0 1.0 0.00 0.00 0.00 86 1013.0
20260507145515 65 270 0.0 0.0 0.00 0.00 0.00 86 1013.0
20260507144515 65 180 0.0 1.0 0.00 0.00 0.00 86 1013.1
20260507143516 65 0 0.0 0.0 0.00 0.00 0.00 85 1013.0
20260507142516 66 0 0.0 0.0 0.00 0.00 0.00 84 1012.9
20260507141517 66 135 0.0 0.0 0.00 0.00 0.00 84 1012.6
20260507140517 66 135 0.0 1.0 0.00 0.00 0.00 84 1012.7
20260507135518 66 135 0.0 0.0 0.00 0.00 0.00 84 1012.8
20260507134518 66 315 0.0 2.0 0.00 0.00 0.00 84 1013.1
20260507133519 66 270 0.0 0.0 0.00 0.00 0.00 83 1013.1
20260507132519 67 0 0.0 1.0 0.00 0.00 0.00 81 1013.2
20260507131520 67 270 0.0 3.0 0.00 0.00 0.00 82 1013.2
20260507130520 67 180 0.0 1.0 0.00 0.00 0.00 82 1013.1
20260507125520 67 315 0.0 0.0 0.00 0.00 0.00 83 1013.0
20260507124520 67 225 0.0 1.0 0.00 0.00 0.00 84 1013.1
20260507123521 67 270 0.0 2.0 0.00 0.00 0.00 83 1012.9
20260507122521 68 225 0.0 2.0 0.00 0.00 0.00 84 1012.7
20260507121521 67 180 1.0 2.0 0.00 0.00 0.00 84 1012.7
20260507120522 67 180 1.0 2.0 0.00 0.00 0.00 83 1012.4
20260507115522 68 180 0.0 2.0 0.00 0.00 0.00 82 1012.3
20260507114522 69 203 2.0 2.0 0.00 0.00 0.00 80 1012.1
20260507113522 70 180 1.0 2.0 0.00 0.00 0.00 77 1012.1
20260507112523 71 270 2.0 3.0 0.00 0.00 0.00 75 1012.0
20260507111523 71 135 0.0 2.0 0.00 0.00 0.00 74 1012.0
20260507110523 71 180 1.0 3.0 0.00 0.00 0.00 74 1011.9
20260507105523 71 180 2.0 5.0 0.00 0.00 0.00 74 1011.7
20260507104523 72 203 1.0 3.0 0.00 0.00 0.00 73 1011.7
20260507103524 73 203 1.0 5.0 0.00 0.00 0.00 72 1011.7
20260507102524 73 225 2.0 3.0 0.00 0.00 0.00 73 1011.6
20260507101524 73 203 1.0 2.0 0.00 0.00 0.00 71 1011.3
20260507100524 74 225 1.0 4.0 0.00 0.00 0.00 69 1011.3
20260507095524 75 203 1.0 2.0 0.00 0.00 0.00 68 1011.1
20260507094524 75 0 0.0 2.0 0.00 0.00 0.00 66 1011.0
20260507093524 76 270 0.0 5.0 0.00 0.00 0.00 65 1010.9
20260507092524 76 270 0.0 2.0 0.00 0.00 0.00 65 1010.8
20260507091524 76 315 0.0 4.0 0.00 0.00 0.00 65 1010.7
20260507090524 77 135 0.0 2.0 0.00 0.00 0.00 65 1010.6
20260507085524 77 338 0.0 2.0 0.00 0.00 0.00 66 1010.5
20260507084524 77 270 1.0 4.0 0.00 0.00 0.00 65 1010.6
20260507083524 77 0 0.0 5.0 0.00 0.00 0.00 65 1010.5
20260507082524 78 270 1.0 3.0 0.00 0.00 0.00 64 1010.4
20260507081523 78 270 1.0 3.0 0.00 0.00 0.00 65 1010.4
20260507080523 79 270 2.0 7.0 0.00 0.00 0.00 63 1010.4
20260507075523 79 315 2.0 6.0 0.00 0.00 0.00 63 1010.4
20260507074523 80 225 2.0 6.0 0.00 0.00 0.00 62 1010.4
20260507073523 80 315 1.0 8.0 0.00 0.00 0.00 62 1010.4
20260507072522 81 225 1.0 8.0 0.00 0.00 0.00 61 1010.4
20260507071522 83 293 1.0 4.0 0.00 0.00 0.00 61 1010.3
20260507070522 82 0 1.0 7.0 0.00 0.00 0.00 62 1010.4
20260507065522 82 0 1.0 6.0 0.00 0.00 0.00 61 1010.4
20260507064521 83 270 2.0 7.0 0.00 0.00 0.00 61 1010.5
20260507063521 83 225 3.0 5.0 0.00 0.00 0.00 61 1010.4
20260507062521 82 135 1.0 5.0 0.00 0.00 0.00 61 1010.5
20260507061520 84 270 2.0 5.0 0.00 0.00 0.00 59 1010.5